Weather History for Soldotna, AK

Change the Weather History Date:

Sunday, April 28, 2013

  Actual Average Record
Temperature  
Mean Temperature 31 °F -  
Max Temperature 41 °F 47 °F 66 °F (2005)
Min Temperature 21 °F 29 °F -3 °F (1971)
Degree Days  
Heating Degree Days 34    
Moisture  
Dew Point 13 °F    
Average Humidity 43    
Maximum Humidity 74    
Minimum Humidity 31    
Precipitation  
Precipitation 0.00 in - - ()
Sea Level Pressure  
Sea Level Pressure 30.05 in    
Wind  
Wind Speed 5 mph (North)    
Max Wind Speed 12 mph    
Max Gust Speed 23 mph    
Visibility 10 miles    
Events      
Averages and records for this station are not official NWS values.
T = Trace of Precipitation, MM = Missing Value Source: NWS Daily Summary

Daily Weather History Graph

Daily Weather History Graph

Search for Another Location

Airport:

Trip Planner

Search our weather history database for the weather conditions in past years. The results will help you decide how hot, cold, wet, or windy it might be!

Date:

Astronomy

Apr. 28, 2013 Rise Set
Actual Time 6:06 AM AKDT 9:58 PM AKDT
Civil Twilight 5:13 AM AKDT 10:51 PM AKDT
Nautical Twilight 3:52 AM AKDT 12:15 AM AKDT
Astronomical Twilight 2:34 AM AKDT Sun does not rise
Moon 1:09 AM AKDT (4/28) 7:59 AM AKDT (4/28)
Length of Visible Light 17h 38m
Length of Day
15h 51m
Waning Gibbous, 87% of the Moon is Illuminated
Apr 28
Waning Gibbous
May 2
Last Quarter
May 9
New
May 17
First Quarter
May 24
Full

Hourly Weather History & Observations

Time (AKDT) Temp. Windchill Dew Point Humidity Pressure Visibility Wind Dir Wind Speed Gust Speed Precip Events Conditions
12:16 AM 33.8 °F 28.6 °F 10.4 °F 38% 29.92 in 10.0 mi North 5.8 mph - N/A   Clear
12:36 AM 33.8 °F 27.7 °F 10.4 °F 38% 29.93 in 10.0 mi NNE 6.9 mph - N/A   Clear
12:56 AM 33.8 °F 27.0 °F 10.4 °F 38% 29.93 in 10.0 mi NNE 8.1 mph - N/A   Clear
1:16 AM 32.0 °F 28.7 °F 10.4 °F 41% 29.94 in 10.0 mi North 3.5 mph - N/A   Clear
1:36 AM 32.0 °F 27.5 °F 10.4 °F 41% 29.94 in 10.0 mi North 4.6 mph - N/A   Clear
1:56 AM 30.2 °F - 10.4 °F 44% 29.95 in 10.0 mi Calm Calm - N/A   Clear
2:16 AM 30.2 °F 26.7 °F 10.4 °F 44% 29.95 in 10.0 mi WNW 3.5 mph - N/A   Clear
2:36 AM 28.4 °F - 10.4 °F 47% 29.96 in 10.0 mi Calm Calm - N/A   Clear
2:56 AM 28.4 °F - 10.4 °F 47% 29.96 in 10.0 mi Calm Calm - N/A   Clear
3:16 AM 28.4 °F 23.3 °F 12.2 °F 51% 29.96 in 10.0 mi NNW 4.6 mph - N/A   Clear
3:36 AM 28.4 °F - 10.4 °F 47% 29.96 in 10.0 mi Calm Calm - N/A   Clear
3:56 AM 28.4 °F - 10.4 °F 47% 29.96 in 10.0 mi Calm Calm - N/A   Clear
4:16 AM 28.4 °F 24.6 °F 10.4 °F 47% 29.97 in 10.0 mi NNE 3.5 mph - N/A   Clear
4:36 AM 28.4 °F - 10.4 °F 47% 29.97 in 10.0 mi Calm Calm - N/A   Clear
5:16 AM 24.8 °F - 8.6 °F 50% 29.98 in 10.0 mi Calm Calm - N/A   Clear
5:36 AM 23.0 °F 17.0 °F 10.4 °F 59% 29.98 in 10.0 mi ENE 4.6 mph - N/A   Clear
5:56 AM 26.6 °F - 12.2 °F 55% 29.99 in 10.0 mi Calm Calm - N/A   Clear
6:16 AM 24.8 °F 20.5 °F 10.4 °F 54% 29.99 in 10.0 mi NE 3.5 mph - N/A   Clear
6:36 AM 24.8 °F - 10.4 °F 54% 29.99 in 10.0 mi Calm Calm - N/A   Clear
6:56 AM 21.2 °F - 10.4 °F 63% 30.00 in 10.0 mi Calm Calm - N/A   Clear
7:16 AM 23.0 °F - 12.2 °F 63% 30.01 in 10.0 mi Calm Calm - N/A   Clear
7:36 AM 26.6 °F - 12.2 °F 55% 30.01 in 10.0 mi Calm Calm - N/A   Clear
7:56 AM 24.8 °F 20.5 °F 12.2 °F 59% 30.02 in 10.0 mi ENE 3.5 mph - N/A   Clear
8:16 AM 28.4 °F 24.6 °F 12.2 °F 51% 30.02 in 10.0 mi ENE 3.5 mph - N/A   Clear
8:36 AM 28.4 °F 21.2 °F 12.2 °F 51% 30.02 in 10.0 mi NE 6.9 mph - N/A   Clear
8:56 AM 30.2 °F 24.3 °F 10.4 °F 44% 30.02 in 10.0 mi NE 5.8 mph - N/A   Clear
9:16 AM 30.2 °F 23.4 °F 10.4 °F 44% 30.03 in 10.0 mi NE 6.9 mph - N/A   Clear
9:36 AM 32.0 °F - 10.4 °F 41% 30.03 in 10.0 mi Calm Calm - N/A   Clear
9:56 AM 32.0 °F 28.7 °F 10.4 °F 41% 30.03 in 10.0 mi NNE 3.5 mph - N/A   Clear
10:16 AM 33.8 °F 29.6 °F 12.2 °F 41% 30.04 in 10.0 mi North 4.6 mph - N/A   Clear
10:36 AM 35.6 °F 28.0 °F 10.4 °F 35% 30.04 in 10.0 mi NNW 10.4 mph - N/A   Clear
10:56 AM 35.6 °F 29.2 °F 10.4 °F 35% 30.04 in 10.0 mi North 8.1 mph - N/A   Clear
11:16 AM 35.6 °F 30.7 °F 10.4 °F 35% 30.05 in 10.0 mi NNE 5.8 mph - N/A   Clear
11:36 AM 35.6 °F 29.2 °F 10.4 °F 35% 30.05 in 10.0 mi North 8.1 mph - N/A   Clear
11:56 AM 37.4 °F 29.8 °F 10.4 °F 33% 30.06 in 10.0 mi NNE 11.5 mph - N/A   Clear
12:16 PM 37.4 °F 30.8 °F 10.4 °F 33% 30.06 in 10.0 mi NNE 9.2 mph - N/A   Clear
12:36 PM 37.4 °F 30.3 °F 10.4 °F 33% 30.07 in 10.0 mi North 10.4 mph 19.6 mph N/A   Clear
12:56 PM 37.4 °F 29.8 °F 10.4 °F 33% 30.07 in 10.0 mi North 11.5 mph 17.3 mph N/A   Clear
1:16 PM 37.4 °F 30.3 °F 10.4 °F 33% 30.07 in 10.0 mi North 10.4 mph 17.3 mph N/A   Clear
1:36 PM 39.2 °F 33.0 °F 10.4 °F 31% 30.07 in 10.0 mi NNE 9.2 mph 16.1 mph N/A   Clear
1:56 PM 39.2 °F 32.0 °F 10.4 °F 31% 30.08 in 10.0 mi North 11.5 mph 23.0 mph N/A   Clear
2:16 PM 39.2 °F 32.0 °F 12.2 °F 33% 30.08 in 10.0 mi NNE 11.5 mph 19.6 mph N/A   Clear
2:36 PM 39.2 °F 33.6 °F 12.2 °F 33% 30.08 in 10.0 mi North 8.1 mph - N/A   Clear
2:56 PM 39.2 °F 32.5 °F 12.2 °F 33% 30.08 in 10.0 mi NNE 10.4 mph 19.6 mph N/A   Clear
3:16 PM 39.2 °F 32.0 °F 12.2 °F 33% 30.08 in 10.0 mi NNE 11.5 mph 17.3 mph N/A   Clear
3:36 PM 39.2 °F 33.0 °F 12.2 °F 33% 30.08 in 10.0 mi NNE 9.2 mph 18.4 mph N/A   Clear
3:56 PM 41.0 °F 34.3 °F 12.2 °F 31% 30.08 in 10.0 mi NNE 11.5 mph 16.1 mph N/A   Clear
4:16 PM 41.0 °F 37.1 °F 12.2 °F 31% 30.08 in 10.0 mi North 5.8 mph 16.1 mph N/A   Clear
4:36 PM 41.0 °F 35.8 °F 12.2 °F 31% 30.08 in 10.0 mi North 8.1 mph - N/A   Clear
4:56 PM 41.0 °F 36.4 °F 12.2 °F 31% 30.07 in 10.0 mi NW 6.9 mph - N/A   Clear
5:16 PM 41.0 °F 38.0 °F 12.2 °F 31% 30.08 in 10.0 mi NNW 4.6 mph - N/A   Clear
5:36 PM 41.0 °F 36.4 °F 12.2 °F 31% 30.07 in 10.0 mi NNW 6.9 mph - N/A   Clear
5:56 PM 41.0 °F 36.4 °F 12.2 °F 31% 30.08 in 10.0 mi NW 6.9 mph - N/A   Clear
6:16 PM 41.0 °F 36.4 °F 12.2 °F 31% 30.08 in 10.0 mi North 6.9 mph - N/A   Clear
6:36 PM 39.2 °F 33.0 °F 15.8 °F 39% 30.09 in 10.0 mi WNW 9.2 mph 16.1 mph N/A   Clear
6:56 PM 41.0 °F - 15.8 °F 36% 30.09 in 10.0 mi Calm Calm - N/A   Clear
7:16 PM 41.0 °F 35.8 °F 17.6 °F 39% 30.09 in 10.0 mi WNW 8.1 mph - N/A   Clear
7:36 PM 39.2 °F 32.5 °F 17.6 °F 42% 30.10 in 10.0 mi West 10.4 mph - N/A   Clear
7:56 PM 39.2 °F 33.6 °F 17.6 °F 42% 30.10 in 10.0 mi West 8.1 mph - N/A   Clear
8:16 PM 37.4 °F 29.8 °F 17.6 °F 45% 30.10 in 10.0 mi West 11.5 mph - N/A   Clear
8:36 PM 37.4 °F 30.3 °F 17.6 °F 45% 30.11 in 10.0 mi West 10.4 mph - N/A   Clear
8:56 PM 37.4 °F 32.1 °F 19.4 °F 48% 30.12 in 10.0 mi WNW 6.9 mph - N/A   Clear
9:16 PM 37.4 °F 32.8 °F 17.6 °F 45% 30.12 in 10.0 mi NW 5.8 mph - N/A   Clear
9:36 PM 37.4 °F 32.8 °F 21.2 °F 52% 30.12 in 10.0 mi NW 5.8 mph - N/A   Clear
9:56 PM 35.6 °F 32.8 °F 19.4 °F 52% 30.13 in 10.0 mi West 3.5 mph - N/A   Clear
10:16 PM 33.8 °F 28.6 °F 19.4 °F 56% 30.14 in 10.0 mi West 5.8 mph - N/A   Clear
10:36 PM 33.8 °F 30.8 °F 19.4 °F 56% 30.15 in 10.0 mi West 3.5 mph - N/A   Clear
10:56 PM 33.8 °F 30.8 °F 21.2 °F 60% 30.15 in 10.0 mi West 3.5 mph - N/A   Clear
11:16 PM 30.2 °F - 19.4 °F 64% 30.15 in 10.0 mi Calm Calm - N/A   Clear
11:36 PM 28.4 °F - 19.4 °F 69% 30.15 in 10.0 mi Calm Calm - N/A   Clear
11:56 PM 26.6 °F - 19.4 °F 74% 30.15 in 10.0 mi Calm Calm - N/A   Clear